Location: Utrecht
(52.0907°N, 5.1214°E)
Time: 16:12:40
(UTC+02:00)

RS-15 - Visible Passes

Search period start: 25 June 2022 00:00
Search period end: 05 July 2022 00:00
Orbit: 1881 x 2163 km, 64.8° (Epoch: 24 June)

Date Brightness Start Highest point End Pass type
(mag) Time Alt. Az. Time Alt. Az. Time Alt. Az.
25 Jun 8.4 00:56:16 10° NW 01:08:44 72° NE 01:20:53 10° SE visible
25 Jun 8.4 03:09:17 10° NW 03:20:54 50° WSW 03:32:08 10° S visible
26 Jun 8.6 00:20:01 10° NW 00:32:23 64° NNE 00:44:27 10° ESE visible
26 Jun 8.2 02:33:06 10° NW 02:45:07 61° WSW 02:56:46 10° SSE visible
26 Jun 8.8 23:43:41 10° NW 23:55:56 58° NNE 00:07:56 10° ESE visible
27 Jun 8.2 01:56:56 10° NW 02:09:14 73° WSW 02:21:09 10° SSE visible
27 Jun 9.1 04:10:42 10° NW 04:19:32 24° W 04:28:11 10° SW visible
27 Jun 8.9 23:07:19 10° NW 23:19:24 53° NNE 23:31:18 10° E visible
28 Jun 8.2 01:20:46 10° NW 01:33:14 85° SW 01:45:18 10° SE visible
28 Jun 8.8 03:34:06 10° NW 03:44:07 31° WSW 03:53:54 10° SSW visible
28 Jun 9.0 22:30:50 10° WNW 22:42:47 49° NNE 22:54:36 10° E visible
29 Jun 8.3 00:44:36 10° NW 00:57:07 84° NE 01:09:14 10° SE visible
29 Jun 8.6 02:57:43 10° NW 03:08:36 39° WSW 03:18:11 13° SSW visible
30 Jun 8.4 00:08:24 10° NW 00:20:53 74° NE 00:33:01 10° SE visible
30 Jun 8.4 02:21:26 10° NW 02:32:57 49° WSW 02:42:36 15° S visible
30 Jun 8.5 23:32:09 10° NW 23:44:33 65° NE 23:56:38 10° ESE visible
01 Jul 8.3 01:45:13 10° NW 01:57:12 60° WSW 02:07:07 16° S visible
01 Jul 9.4 03:59:58 10° WNW 04:06:48 17° W 04:13:32 10° SW visible
01 Jul 8.7 22:55:51 10° NW 23:08:07 58° NNE 23:20:06 10° ESE visible
02 Jul 8.2 01:09:03 10° NW 01:21:19 71° WSW 01:31:42 15° SSE visible
02 Jul 9.2 03:22:55 10° NW 03:31:32 23° W 03:39:24 11° SW visible
03 Jul 8.2 00:32:54 10° NW 00:45:20 83° SW 00:56:22 14° SSE visible
03 Jul 9.0 02:46:17 10° NW 02:56:08 30° WSW 03:04:04 15° SSW visible
03 Jul 8.3 23:56:44 10° NW 00:09:14 85° NE 00:21:06 11° SE visible
04 Jul 8.7 02:09:52 10° NW 02:20:38 38° WSW 02:28:48 17° SSW visible
04 Jul 8.4 23:20:32 10° NW 23:33:01 75° NE 23:45:08 10° SE visible
